Location: Laval
(48.0785°N, 0.7670°W)
Time: 16:23:32
(UTC+01:00)

ISS - Pass Details

Date: 18 December 2023
Orbit: 414 x 422 km, 51.6° (Epoch: 03 March)

Event Time Altitude Azimuth Distance (km) Brightness Sun altitude
Rises 07:34:20 0° 228° (SW) 2,341 -0.2 -11.7°
Reaches altitude 10° 07:36:28 10° 222° (SW) 1,482 -1.2 -11.3°
Maximum altitude 07:39:39 45° 148° (SSE) 574 -2.6 -10.8°
Drops below altitude 10° 07:42:53 10° 74° (ENE) 1,495 -0.2 -10.4°
Sets 07:45:02 0° 68° (ENE) 2,363 0.8 -10.0°
